CXO

Last updated on Wed Jul 02 2025 00:03:30 GMT+0000 (Coordinated Universal Time)

1 25867U 99040B 25185.30516719 .00000413 00000+0 00000+0 0 9999 2 25867 49.8723 128.9033 8393697 309.7755 0.3417 0.37806887 27168
UTC large
Height (km)
Speed (km/s)
/
Latitude / Longitude
Inclination (degrees)
Orbital Period (minutes)
Azimuth
Elevation
Range (km)
Doppler Factor

Next 0 passes for location: London (51.5072 / 0.1276)

Sorry there are no passes over London.